[Iaude] MPEC T257: 2023 TE14 [a=2.09,e=0.59,i=5.6,H=23.7]
    mpec at marsden.cfa.harvard.edu 
    mpec at marsden.cfa.harvard.edu
       
    Sun Oct 15 15:56:11 EDT 2023
    
    
  
M.P.E.C. 2023-T257                             Issued 2023 October 15, 19:54 UT
     The Minor Planet Electronic Circulars contain information on unusual
         minor planets, routine data on comets and natural satellites,
         and occasional editorial announcements.  They are published
    on behalf of Division F of the International Astronomical Union by the
          Minor Planet Center, Smithsonian Astrophysical Observatory,
                          Cambridge, MA 02138, U.S.A.
			  
             Prepared using the Tamkin Foundation Computer Network
                              MPC at CFA.HARVARD.EDU
            URL https://www.minorplanetcenter.net/    ISSN 1523-6714
                                   2023 TE14                                    
Observations:
     K23T14E* C2023 10 12.51430703 07 21.487-11 05 16.57         20.74wXET257F51
     K23T14E  C2023 10 12.52921603 07 17.106-11 04 46.43         20.69wXET257F51
     K23T14E  C2023 10 12.54155303 07 13.494-11 04 21.34         20.62wXET257F51
     K23T14E  C2023 10 12.55386103 07 09.864-11 03 56.47         20.53wXET257F51
     K23T14E  C2023 10 12.62035403 06 50.669-11 01 40.58         20.31GVET257F51
     K23T14E  C2023 10 12.62099503 06 50.493-11 01 39.24         20.42GVET257F51
     K23T14E KC2023 10 13.28090103 04 08.12 -10 40 46.3          20.7 VuET257H21
     K23T14E KC2023 10 13.28369703 04 07.38 -10 40 40.8          20.7 VuET257H21
     K23T14E KC2023 10 13.28649203 04 06.63 -10 40 35.8          20.8 VuET257H21
     K23T14E KC2023 10 13.28928803 04 05.89 -10 40 30.2          21.1 VuET257H21
     K23T14E KC2023 10 13.29180403 04 05.22 -10 40 25.7          21.0 VuET257H21
     K23T14E KC2023 10 13.46333 03 03 21.47 -10 35 00.6          19.3 RVET257691
     K23T14E KC2023 10 13.46696 03 03 20.51 -10 34 54.5          20.0 RVET257691
     K23T14E KC2023 10 13.47061 03 03 19.57 -10 34 47.5          20.2 RVET257691
     K23T14E 3C2023 10 13.47680803 03 21.009-10 34 25.71         20.29GVET257T14
     K23T14E 3C2023 10 13.47778803 03 20.749-10 34 23.93         20.27GVET257T14
     K23T14E 3C2023 10 13.47876803 03 20.483-10 34 22.13         20.28GVET257T14
     K23T14E  C2023 10 15.42841802 56 22.885-09 39 55.06         21.10wXET257F52
     K23T14E  C2023 10 15.44799202 56 18.642-09 39 25.62         20.80wXET257F52
     K23T14E  C2023 10 15.45778702 56 16.487-09 39 10.68         20.95wXET257F52
     K23T14E KC2023 10 15.48500 02 56 07.87 -09 38 37.2                oET257291
     K23T14E KC2023 10 15.48650 02 56 07.57 -09 38 34.5                oET257291
     K23T14E KC2023 10 15.48800 02 56 07.29 -09 38 32.2          20.5 RoET257291
Observer details:
291 LPL/Spacewatch II.  Observer R. A. Mastaler.  1.8-m f/2.7 reflector + CCD.
691 Steward Observatory, Kitt Peak-Spacewatch.  Observer T. H. Bressi.  0.9-m
    f/3 reflector + CCD.
F51 Pan-STARRS 1, Haleakala.  Observers J. Bulger, T. Lowe, P. Minguez, A.
    Schultz, I. Smith.  Measurers K. Chambers, T. de Boer, J. Fairlamb, H.
    Gao, M. Huber, C.-C. Lin, E. Magnier, Y. Ramanjooloo, R. Wainscoat, R.
    Weryk.  1.8-m Ritchey-Chretien + CCD.
F52 Pan-STARRS 2, Haleakala.  Observers J. Bulger, T. Lowe, P. Minguez, A.
    Schultz, I. Smith.  Measurers K. Chambers, T. de Boer, J. Fairlamb, H.
    Gao, M. Huber, C.-C. Lin, E. Magnier, Y. Ramanjooloo, R. Wainscoat, R.
    Weryk.  1.8-m Ritchey-Chretien + CCD.
H21 Astronomical Research Observatory, Westfield.  Observer R. Holmes.
    Measurers T. Linder, R. Holmes, L. Horn.  0.76-m f/3.0 astrograph + CCD.
T14 Canada-France-Hawaii Telescope, Maunakea.  Observers R. Wainscoat, L.
    Wells, T. Burdullis.  Measurers R. Weryk, R. Wainscoat.  3.6-m Canada-
    France-Hawaii Telescope + CCD.
Orbital elements:
2023 TE14                                                Earth MOID = 0.0279 AU
Epoch 2023 Sept. 13.0 TT = JDT 2460200.5                Veres                   
M   6.73250              (2000.0)            P               Q                  
n   0.32537780     Peri.  143.48692     +0.69650772     +0.71737349             
a   2.0935216      Node   170.62370     -0.67925776     +0.66631170             
e   0.5945005      Incl.    5.59464     -0.23127014     +0.20347972             
P   3.03           H   23.72          G   0.15           U   9                  
Residuals in seconds of arc
231012 F51  0.2-  0.0     231013 H21  0.6-  0.1+    231013 T14  0.0   0.0
231012 F51  0.0   0.0     231013 H21  0.6-  0.5+    231015 F52  0.1-  0.2+
231012 F51  0.3+  0.1+    231013 H21  0.6-  0.3+    231015 F52  0.2+  0.0
231012 F51  0.0   0.1-    231013 691  0.2+  0.5+    231015 F52  0.0   0.0
231012 F51  0.1+  0.0     231013 691  0.1-  0.2-    231015 291  0.6-  0.4-
231012 F51  0.2+  0.0     231013 691  0.0   0.0     231015 291  0.3-  0.1-
231013 H21  0.6-  0.1-    231013 T14  0.0   0.0     231015 291  0.2+  0.1-
231013 H21  0.6-  0.3+    231013 T14  0.0   0.0
Ephemeris:
2023 TE14                a,e,i = 2.09, 0.59, 6                   q = 0.8489
Date    TT    R. A. (2000) Decl.     Delta      r    Elong.  Phase     V
2023 09 15    13 05 50.5 -05 13 40   0.1095  0.9084    25.6   151.4    27.4
...
2023 09 30    06 33 20.7 -28 17 14   0.03647 1.0001    86.5    91.4    19.8
...
2023 10 08    03 34 40.3 -14 24 42   0.08296 1.0597   135.0    41.8    20.1
...
2023 10 14    03 01 19.7 -10 18 18   0.1274  1.1075   147.7    28.8    20.7
2023 10 15    02 57 46.5 -09 50 35   0.1351  1.1157   149.3    27.2    20.8
2023 10 16    02 54 33.4 -09 25 08   0.1430  1.1240   150.7    25.8    20.9
...
2023 10 22    02 40 08.3 -07 24 34   0.1916  1.1742   157.1    19.3    21.5
...
2023 10 30    02 28 29.3 -05 27 40   0.2615  1.2431   160.7    15.3    22.1
...
2023 11 14    02 18 13.0 -02 31 07   0.4119  1.3745   155.3    17.5    23.4
M. P. C. Staff               (C) Copyright 2023 MPC           M.P.E.C. 2023-T257
    
    
More information about the Iaude
mailing list